owner,sensor,date,latitude,longitude,vertical_datum,wind_speed,wind_to_direction,wind_speed_of_gust,qcFlag 
TABS,ioos:station:wmo:42045:1,2016-08-01T04:30:00Z,26.2168,-96.4998,4.0,0.14,347.7,1.09,'1111122,1111122,1111122' 
TABS,ioos:station:wmo:42045:1,2016-08-01T08:00:00Z,26.2168,-96.4998,4.0,0.03,4.9,0.81,'1111122,1111122,1111122' 
TABS,ioos:station:wmo:42045:1,2016-08-01T08:30:00Z,26.2168,-96.4998,4.0,0.11,15.5,0.81,'1111122,1111122,1111122' 
TABS,ioos:station:wmo:42045:1,2016-08-01T11:30:00Z,26.2168,-96.4998,4.0,0.18,219.1,0.78,'1111122,1111122,1111122' 
TABS,ioos:station:wmo:42045:1,2016-08-01T18:00:00Z,26.2168,-96.4998,4.0,0.11,338.4,1.27,'1111122,1111122,1111122' 
TABS,ioos:station:wmo:42045:1,2016-08-01T18:30:00Z,26.2168,-96.4998,4.0,0.18,229.0,2.31,'1111122,1111122,1111122' 
TABS,ioos:station:wmo:42045:1,2016-08-02T21:00:00Z,26.2168,-96.4998,4.0,0.22,292.6,1.95,'1111122,1111122,1111122' 
TABS,ioos:station:wmo:42045:1,2016-08-02T23:30:00Z,26.2168,-96.4998,4.0,0.1,306.8,2.96,'1111122,1111122,1111122' 
TABS,ioos:station:wmo:42045:1,2016-08-03T05:00:00Z,26.2168,-96.4998,4.0,1.14,166.9,2.65,'1111122,1111122,1111122' 
TABS,ioos:station:wmo:42045:1,2016-08-03T05:30:00Z,26.2168,-96.4998,4.0,1.98,162.8,4.12,'1111122,1111122,1111122' 
TABS,ioos:station:wmo:42045:1,2016-08-03T08:00:00Z,26.2168,-96.4998,4.0,3.27,165.1,4.78,'1111122,1111122,1111122' 
TABS,ioos:station:wmo:42045:1,2016-08-03T09:00:00Z,26.2168,-96.4998,4.0,2.75,163.8,4.62,'1111122,1111122,1111122' 
TABS,ioos:station:wmo:42045:1,2016-08-03T09:30:00Z,26.2168,-96.4998,4.0,2.88,163.0,4.69,'1111122,1111122,1111122' 
TABS,ioos:station:wmo:42045:1,2016-08-03T12:00:00Z,26.2168,-96.4998,4.0,1.43,169.7,2.48,'1111122,1111122,1111122' 
TABS,ioos:station:wmo:42045:1,2016-08-03T14:00:00Z,26.2168,-96.4998,4.0,1.38,170.9,2.4,'1111122,1111122,1111122' 
TABS,ioos:station:wmo:42045:1,2016-08-03T15:00:00Z,26.2168,-96.4998,4.0,1.9,163.4,3.22,'1111122,1111122,1111122' 
TABS,ioos:station:wmo:42045:1,2016-08-03T17:00:00Z,26.2168,-96.4998,4.0,2.12,162.5,3.39,'1111122,1111122,1111122' 
TABS,ioos:station:wmo:42045:1,2016-08-03T18:00:00Z,26.2168,-96.4998,4.0,1.02,156.1,2.87,'1111122,1111122,1111122' 
TABS,ioos:station:wmo:42045:1,2016-08-04T00:00:00Z,26.2168,-96.4998,4.0,1.735194514,153.2875525,4.19,'11111222,11111222,11111222' 
TABS,ioos:station:wmo:42045:1,2016-08-04T00:30:00Z,26.2168,-96.4998,4.0,1.632666531,149.0365263,4.31,'11111222,11111222,11111222' 
TABS,ioos:station:wmo:42045:1,2016-08-04T01:00:00Z,26.2168,-96.4998,4.0,2.281775624,155.1199018,5.16,'11111222,11111222,11111222' 
TABS,ioos:station:wmo:42045:1,2016-08-04T01:30:00Z,26.2168,-96.4998,4.0,2.393532954,155.0412206,5.53,'11111222,11111222,11111222' 
TABS,ioos:station:wmo:42045:1,2016-08-04T02:00:00Z,26.2168,-96.4998,4.0,3.348581789,159.1838714,6.05,'11111222,11111222,11111222' 
TABS,ioos:station:wmo:42045:1,2016-08-04T02:30:00Z,26.2168,-96.4998,4.0,4.131682466,159.8986735,6.62,'11111222,11111222,11111222' 
TABS,ioos:station:wmo:42045:1,2016-08-04T03:00:00Z,26.2168,-96.4998,4.0,1.504559736,150.5388044,4.77,'11111222,11111222,11111222' 
TABS,ioos:station:wmo:42045:1,2016-08-04T03:30:00Z,26.2168,-96.4998,4.0,1.719680203,124.3372685,3.46,'11111222,11111222,11111222' 
TABS,ioos:station:wmo:42045:1,2016-08-04T04:00:00Z,26.2168,-96.4998,4.0,1.069626103,103.5169574,2.67,'11111222,11111222,11111222' 
TABS,ioos:station:wmo:42045:1,2016-08-04T04:30:00Z,26.2168,-96.4998,4.0,4.875705077,130.0917729,6.22,'11111222,11111222,11111222' 
TABS,ioos:station:wmo:42045:1,2016-08-04T05:00:00Z,26.2168,-96.4998,4.0,5.719737756,132.3077025,6.62,'11111222,11111222,11111222' 
TABS,ioos:station:wmo:42045:1,2016-08-04T05:30:00Z,26.2168,-96.4998,4.0,4.750831506,128.8484867,5.72,'11111222,11111222,11111222' 
TABS,ioos:station:wmo:42045:1,2016-08-04T06:00:00Z,26.2168,-96.4998,4.0,5.031918123,131.1326924,6.31,'11111222,11111222,11111222' 
TABS,ioos:station:wmo:42045:1,2016-08-04T06:30:00Z,26.2168,-96.4998,4.0,4.816565166,133.7385011,6.12,'11111222,11111222,11111222' 
TABS,ioos:station:wmo:42045:1,2016-08-04T07:00:00Z,26.2168,-96.4998,4.0,4.685232118,137.4222529,5.63,'11111222,11111222,11111222' 
TABS,ioos:station:wmo:42045:1,2016-08-04T07:30:00Z,26.2168,-96.4998,4.0,4.152071772,136.4641107,5.08,'11111222,11111222,11111222' 
TABS,ioos:station:wmo:42045:1,2016-08-04T08:00:00Z,26.2168,-96.4998,4.0,4.628995571,144.3187295,5.58,'11111222,11111222,11111222' 
TABS,ioos:station:wmo:42045:1,2016-08-04T08:30:00Z,26.2168,-96.4998,4.0,4.641777677,151.0056195,5.53,'11111222,11111222,11111222' 
TABS,ioos:station:wmo:42045:1,2016-08-04T09:00:00Z,26.2168,-96.4998,4.0,4.449460641,150.9581815,5.29,'11111222,11111222,11111222' 
TABS,ioos:station:wmo:42045:1,2016-08-04T09:30:00Z,26.2168,-96.4998,4.0,3.976153921,157.3693139,4.62,'11111222,11111222,11111222' 
TABS,ioos:station:wmo:42045:1,2016-08-04T10:00:00Z,26.2168,-96.4998,4.0,4.002811512,159.5279788,4.97,'11111222,11111222,11111222' 
TABS,ioos:station:wmo:42045:1,2016-08-04T10:30:00Z,26.2168,-96.4998,4.0,3.594801803,163.6826653,4.59,'11111222,11111222,11111222' 
TABS,ioos:station:wmo:42045:1,2016-08-04T11:00:00Z,26.2168,-96.4998,4.0,3.349641772,153.5882134,4.0,'11111222,11111222,11111222' 
TABS,ioos:station:wmo:42045:1,2016-08-04T11:30:00Z,26.2168,-96.4998,4.0,3.159398677,172.1778895,3.92,'11111222,11111222,11111222' 
TABS,ioos:station:wmo:42045:1,2016-08-04T12:00:00Z,26.2168,-96.4998,4.0,2.593067681,161.5653047,3.3,'11111222,11111222,11111222' 
TABS,ioos:station:wmo:42045:1,2016-08-04T12:30:00Z,26.2168,-96.4998,4.0,2.512687804,166.1852174,3.24,'11111222,11111222,11111222' 
TABS,ioos:station:wmo:42045:1,2016-08-04T13:00:00Z,26.2168,-96.4998,4.0,2.730952215,171.3657248,3.37,'11111222,11111222,11111222' 
TABS,ioos:station:wmo:42045:1,2016-08-04T13:30:00Z,26.2168,-96.4998,4.0,2.575131065,168.1230393,3.4,'11111222,11111222,11111222' 
TABS,ioos:station:wmo:42045:1,2016-08-04T14:00:00Z,26.2168,-96.4998,4.0,2.770776065,157.5076512,3.58,'11111222,11111222,11111222' 
TABS,ioos:station:wmo:42045:1,2016-08-04T14:30:00Z,26.2168,-96.4998,4.0,2.152603075,155.5783412,2.79,'11111222,11111222,11111222' 
TABS,ioos:station:wmo:42045:1,2016-08-04T15:00:00Z,26.2168,-96.4998,4.0,1.827019431,138.1063355,2.47,'11111222,11111222,11111222' 
TABS,ioos:station:wmo:42045:1,2016-08-04T15:30:00Z,26.2168,-96.4998,4.0,2.086264605,134.029296,2.86,'11111222,11111222,11111222' 
TABS,ioos:station:wmo:42045:1,2016-08-04T16:00:00Z,26.2168,-96.4998,4.0,2.151325173,117.3991755,2.99,'11111222,11111222,11111222' 
TABS,ioos:station:wmo:42045:1,2016-08-04T16:30:00Z,26.2168,-96.4998,4.0,2.811138559,131.9723857,3.41,'11111222,11111222,11111222' 
TABS,ioos:station:wmo:42045:1,2016-08-04T17:00:00Z,26.2168,-96.4998,4.0,3.552872078,146.1313132,4.97,'11111222,11111222,11111222' 
TABS,ioos:station:wmo:42045:1,2016-08-04T17:30:00Z,26.2168,-96.4998,4.0,3.839856768,148.9597569,4.57,'11111222,11111222,11111222' 
TABS,ioos:station:wmo:42045:1,2016-08-04T18:00:00Z,26.2168,-96.4998,4.0,3.349104358,144.6018274,4.01,'11111222,11111222,11111222' 
TABS,ioos:station:wmo:42045:1,2016-08-04T18:30:00Z,26.2168,-96.4998,4.0,3.129728423,141.2261302,4.42,'11111222,11111222,11111222' 
TABS,ioos:station:wmo:42045:1,2016-08-04T19:00:00Z,26.2168,-96.4998,4.0,3.484551621,142.1108941,4.26,'11111222,11111222,11111222' 
TABS,ioos:station:wmo:42045:1,2016-08-04T19:30:00Z,26.2168,-96.4998,4.0,4.128159396,149.5839961,4.84,'11111222,11111222,11111222' 
TABS,ioos:station:wmo:42045:1,2016-08-04T20:00:00Z,26.2168,-96.4998,4.0,3.736308338,142.394307,4.63,'11111222,11111222,11111222' 
TABS,ioos:station:wmo:42045:1,2016-08-04T20:30:00Z,26.2168,-96.4998,4.0,3.422002338,143.1973723,4.3,'11111222,11111222,11111222' 
TABS,ioos:station:wmo:42045:1,2016-08-04T21:00:00Z,26.2168,-96.4998,4.0,3.505709629,130.1407126,4.74,'11111222,11111222,11111222' 
TABS,ioos:station:wmo:42045:1,2016-08-04T21:30:00Z,26.2168,-96.4998,4.0,3.546857764,128.1303394,4.44,'11111222,11111222,11111222' 
TABS,ioos:station:wmo:42045:1,2016-08-04T22:00:00Z,26.2168,-96.4998,4.0,3.203388831,134.3679391,4.16,'11111222,11111222,11111222' 
TABS,ioos:station:wmo:42045:1,2016-08-04T22:30:00Z,26.2168,-96.4998,4.0,3.571736272,133.7524891,4.33,'11111222,11111222,11111222' 
TABS,ioos:station:wmo:42045:1,2016-08-04T23:00:00Z,26.2168,-96.4998,4.0,2.901930392,132.4865113,3.69,'11111222,11111222,11111222' 
TABS,ioos:station:wmo:42045:1,2016-08-04T23:30:00Z,26.2168,-96.4998,4.0,2.965754541,128.8411671,4.11,'11111222,11111222,11111222' 
TABS,ioos:station:wmo:42045:1,2016-08-05T00:00:00Z,26.2168,-96.4998,4.0,2.792507833,107.7216013,3.69,'11111222,11111222,11111222' 
TABS,ioos:station:wmo:42045:1,2016-08-05T00:30:00Z,26.2168,-96.4998,4.0,3.363406012,115.7273685,4.47,'11111222,11111222,11111222' 
TABS,ioos:station:wmo:42045:1,2016-08-05T01:00:00Z,26.2168,-96.4998,4.0,4.341658669,114.2040408,5.24,'11111222,11111222,11111222' 
TABS,ioos:station:wmo:42045:1,2016-08-05T01:30:00Z,26.2168,-96.4998,4.0,4.433531324,118.1260556,5.32,'11111222,11111222,11111222' 
TABS,ioos:station:wmo:42045:1,2016-08-05T02:00:00Z,26.2168,-96.4998,4.0,5.080915272,117.4227632,5.92,'11111222,11111222,11111222' 
TABS,ioos:station:wmo:42045:1,2016-08-05T02:30:00Z,26.2168,-96.4998,4.0,5.108600591,112.1974901,6.56,'11111222,11111222,11111222' 
TABS,ioos:station:wmo:42045:1,2016-08-05T03:00:00Z,26.2168,-96.4998,4.0,5.259353572,116.1756497,6.23,'11111222,11111222,11111222' 
TABS,ioos:station:wmo:42045:1,2016-08-05T03:30:00Z,26.2168,-96.4998,4.0,5.796636956,118.9973542,6.71,'11111222,11111222,11111222' 
TABS,ioos:station:wmo:42045:1,2016-08-05T04:00:00Z,26.2168,-96.4998,4.0,6.20196743,124.3566081,7.24,'11111222,11111222,11111222' 
TABS,ioos:station:wmo:42045:1,2016-08-05T04:30:00Z,26.2168,-96.4998,4.0,6.788320853,126.313162,7.8,'11111222,11111222,11111222' 
TABS,ioos:station:wmo:42045:1,2016-08-05T05:00:00Z,26.2168,-96.4998,4.0,6.668882965,132.2046599,7.75,'11111222,11111222,11111222' 
TABS,ioos:station:wmo:42045:1,2016-08-05T05:30:00Z,26.2168,-96.4998,4.0,6.928325916,140.6818025,8.28,'11111222,11111222,11111222' 
TABS,ioos:station:wmo:42045:1,2016-08-05T06:00:00Z,26.2168,-96.4998,4.0,6.502007382,136.932298,7.66,'11111222,11111222,11111222' 
TABS,ioos:station:wmo:42045:1,2016-08-05T06:30:00Z,26.2168,-96.4998,4.0,7.213244762,144.1948379,8.29,'11111222,11111222,11111222' 
TABS,ioos:station:wmo:42045:1,2016-08-05T07:00:00Z,26.2168,-96.4998,4.0,7.070190945,148.0636225,8.24,'11111222,11111222,11111222' 
TABS,ioos:station:wmo:42045:1,2016-08-05T07:30:00Z,26.2168,-96.4998,4.0,6.508394579,155.8768853,7.8,'11111222,11111222,11111222' 
TABS,ioos:station:wmo:42045:1,2016-08-05T08:00:00Z,26.2168,-96.4998,4.0,7.12,154.0110376,8.29,'11111222,11111222,11111222' 
TABS,ioos:station:wmo:42045:1,2016-08-05T08:30:00Z,26.2168,-96.4998,4.0,6.976539257,156.3379703,8.22,'11111222,11111222,11111222' 
TABS,ioos:station:wmo:42045:1,2016-08-05T09:00:00Z,26.2168,-96.4998,4.0,6.39463056,164.7687026,7.69,'11111222,11111222,11111222' 
TABS,ioos:station:wmo:42045:1,2016-08-05T09:30:00Z,26.2168,-96.4998,4.0,6.452983806,162.9693287,7.89,'11111222,11111222,11111222' 
TABS,ioos:station:wmo:42045:1,2016-08-05T10:00:00Z,26.2168,-96.4998,4.0,6.264183905,163.3010053,8.1,'11111222,11111222,11111222' 
TABS,ioos:station:wmo:42045:1,2016-08-05T10:30:00Z,26.2168,-96.4998,4.0,5.812486559,171.5913184,6.93,'11111222,11111222,11111222' 
TABS,ioos:station:wmo:42045:1,2016-08-05T11:00:00Z,26.2168,-96.4998,4.0,5.780034602,179.8019564,6.85,'11111222,11111222,11111222' 
TABS,ioos:station:wmo:42045:1,2016-08-05T11:30:00Z,26.2168,-96.4998,4.0,5.864887041,171.4694648,7.12,'11111222,11111222,11111222' 
TABS,ioos:station:wmo:42045:1,2016-08-05T12:00:00Z,26.2168,-96.4998,4.0,5.035086891,166.2123898,6.18,'11111222,11111222,11111222' 
TABS,ioos:station:wmo:42045:1,2016-08-05T12:30:00Z,26.2168,-96.4998,4.0,4.853339057,177.8747496,5.5,'11111222,11111222,11111222' 
TABS,ioos:station:wmo:42045:1,2016-08-05T13:00:00Z,26.2168,-96.4998,4.0,4.695551086,167.8287807,5.63,'11111222,11111222,11111222' 
TABS,ioos:station:wmo:42045:1,2016-08-05T13:30:00Z,26.2168,-96.4998,4.0,4.427301661,170.7719425,5.36,'11111222,11111222,11111222' 
TABS,ioos:station:wmo:42045:1,2016-08-05T14:00:00Z,26.2168,-96.4998,4.0,3.977562067,169.4248237,4.68,'11111222,11111222,11111222' 
TABS,ioos:station:wmo:42045:1,2016-08-05T14:30:00Z,26.2168,-96.4998,4.0,3.567702342,165.8860996,4.12,'11111222,11111222,11111222' 
TABS,ioos:station:wmo:42045:1,2016-08-05T15:00:00Z,26.2168,-96.4998,4.0,3.253013987,151.5444425,4.35,'11111222,11111222,11111222' 
TABS,ioos:station:wmo:42045:1,2016-08-05T15:30:00Z,26.2168,-96.4998,4.0,3.171655719,154.8087607,3.92,'11111222,11111222,11111222' 
TABS,ioos:station:wmo:42045:1,2016-08-05T16:00:00Z,26.2168,-96.4998,4.0,2.563630239,138.162606,3.32,'11111222,11111222,11111222' 
TABS,ioos:station:wmo:42045:1,2016-08-05T16:30:00Z,26.2168,-96.4998,4.0,3.65629594,134.0030067,4.46,'11111222,11111222,11111222' 
TABS,ioos:station:wmo:42045:1,2016-08-05T17:00:00Z,26.2168,-96.4998,4.0,3.436771741,124.5689665,4.05,'11111222,11111222,11111222' 
TABS,ioos:station:wmo:42045:1,2016-08-05T17:30:00Z,26.2168,-96.4998,4.0,4.074272941,138.6820899,4.97,'11111222,11111222,11111222' 
TABS,ioos:station:wmo:42045:1,2016-08-05T18:00:00Z,26.2168,-96.4998,4.0,3.954554336,133.258409,4.91,'11111222,11111222,11111222' 
TABS,ioos:station:wmo:42045:1,2016-08-05T18:30:00Z,26.2168,-96.4998,4.0,4.160252396,123.7286068,5.12,'11111222,11111222,11111222' 
TABS,ioos:station:wmo:42045:1,2016-08-05T19:00:00Z,26.2168,-96.4998,4.0,4.19400763,126.7609418,5.37,'11111222,11111222,11111222' 
TABS,ioos:station:wmo:42045:1,2016-08-05T19:30:00Z,26.2168,-96.4998,4.0,4.55241694,119.0427327,5.35,'11111222,11111222,11111222' 
TABS,ioos:station:wmo:42045:1,2016-08-05T20:00:00Z,26.2168,-96.4998,4.0,4.642251609,116.0686394,5.39,'11111222,11111222,11111222' 
TABS,ioos:station:wmo:42045:1,2016-08-05T20:30:00Z,26.2168,-96.4998,4.0,4.938511922,112.8790433,5.83,'11111222,11111222,11111222' 
TABS,ioos:station:wmo:42045:1,2016-08-05T21:00:00Z,26.2168,-96.4998,4.0,5.146892266,118.8062702,5.99,'11111222,11111222,11111222' 
TABS,ioos:station:wmo:42045:1,2016-08-05T21:30:00Z,26.2168,-96.4998,4.0,5.386891497,119.4681893,6.4,'11111222,11111222,11111222' 
TABS,ioos:station:wmo:42045:1,2016-08-05T22:00:00Z,26.2168,-96.4998,4.0,5.344249246,116.3256806,6.25,'11111222,11111222,11111222' 
TABS,ioos:station:wmo:42045:1,2016-08-05T22:30:00Z,26.2168,-96.4998,4.0,5.702429307,118.9476072,6.91,'11111222,11111222,11111222' 
TABS,ioos:station:wmo:42045:1,2016-08-05T23:00:00Z,26.2168,-96.4998,4.0,5.464375536,121.6834099,6.42,'11111222,11111222,11111222' 
TABS,ioos:station:wmo:42045:1,2016-08-06T00:00:00Z,26.2168,-96.4998,4.0,6.002166276,124.2728777,7.11,'11111222,11111222,11111222' 
TABS,ioos:station:wmo:42045:1,2016-08-06T00:30:00Z,26.2168,-96.4998,4.0,5.167068802,123.4751291,6.37,'11111222,11111222,11111222' 
TABS,ioos:station:wmo:42045:1,2016-08-06T01:00:00Z,26.2168,-96.4998,4.0,6.483155096,122.4647591,7.82,'11111222,11111222,11111222' 
TABS,ioos:station:wmo:42045:1,2016-08-06T01:30:00Z,26.2168,-96.4998,4.0,6.871280812,130.6920636,8.29,'11111222,11111222,11111222' 
TABS,ioos:station:wmo:42045:1,2016-08-06T02:00:00Z,26.2168,-96.4998,4.0,6.803359464,128.0156557,7.96,'11111222,11111222,11111222' 
TABS,ioos:station:wmo:42045:1,2016-08-06T02:30:00Z,26.2168,-96.4998,4.0,6.525273941,130.5254296,7.98,'11111222,11111222,11111222' 
TABS,ioos:station:wmo:42045:1,2016-08-06T03:00:00Z,26.2168,-96.4998,4.0,6.972775631,135.8137895,7.99,'11111222,11111222,11111222' 
TABS,ioos:station:wmo:42045:1,2016-08-06T03:30:00Z,26.2168,-96.4998,4.0,6.417702081,137.0840231,7.54,'11111222,11111222,11111222' 
TABS,ioos:station:wmo:42045:1,2016-08-06T04:00:00Z,26.2168,-96.4998,4.0,6.189167957,141.2971197,7.45,'11111222,11111222,11111222' 
TABS,ioos:station:wmo:42045:1,2016-08-06T04:30:00Z,26.2168,-96.4998,4.0,6.873601676,135.7076334,8.57,'11111222,11111222,11111222' 
TABS,ioos:station:wmo:42045:1,2016-08-06T05:00:00Z,26.2168,-96.4998,4.0,6.746169283,135.600877,8.42,'11111222,11111222,11111222' 
TABS,ioos:station:wmo:42045:1,2016-08-06T05:30:00Z,26.2168,-96.4998,4.0,6.50406027,143.3770577,8.06,'11111222,11111222,11111222' 
TABS,ioos:station:wmo:42045:1,2016-08-06T06:00:00Z,26.2168,-96.4998,4.0,6.842645687,143.9175156,8.01,'11111222,11111222,11111222' 
TABS,ioos:station:wmo:42045:1,2016-08-06T06:30:00Z,26.2168,-96.4998,4.0,6.066119023,142.7714795,7.0,'11111222,11111222,11111222' 
TABS,ioos:station:wmo:42045:1,2016-08-06T07:00:00Z,26.2168,-96.4998,4.0,5.93933498,148.4243813,6.88,'11111222,11111222,11111222' 
TABS,ioos:station:wmo:42045:1,2016-08-06T07:30:00Z,26.2168,-96.4998,4.0,5.529602156,150.6538142,6.83,'11111222,11111222,11111222' 
TABS,ioos:station:wmo:42045:1,2016-08-06T08:00:00Z,26.2168,-96.4998,4.0,5.694295391,159.9741682,7.79,'11111222,11111222,11111222' 
TABS,ioos:station:wmo:42045:1,2016-08-06T08:30:00Z,26.2168,-96.4998,4.0,5.278342543,162.3548293,6.31,'11111222,11111222,11111222' 
TABS,ioos:station:wmo:42045:1,2016-08-06T09:00:00Z,26.2168,-96.4998,4.0,6.214635951,155.1671754,7.75,'11111222,11111222,11111222' 
TABS,ioos:station:wmo:42045:1,2016-08-06T09:30:00Z,26.2168,-96.4998,4.0,6.529885144,159.844732,8.03,'11111222,11111222,11111222' 
TABS,ioos:station:wmo:42045:1,2016-08-06T10:00:00Z,26.2168,-96.4998,4.0,5.771247699,156.1889796,6.91,'11111222,11111222,11111222' 
TABS,ioos:station:wmo:42045:1,2016-08-06T10:30:00Z,26.2168,-96.4998,4.0,5.223830013,154.1219514,7.14,'11111222,11111222,11111222' 
TABS,ioos:station:wmo:42045:1,2016-08-06T11:00:00Z,26.2168,-96.4998,4.0,5.519574259,152.3674359,6.51,'11111222,11111222,11111222' 
TABS,ioos:station:wmo:42045:1,2016-08-06T11:30:00Z,26.2168,-96.4998,4.0,5.308483776,146.3700918,6.25,'11111222,11111222,11111222' 
TABS,ioos:station:wmo:42045:1,2016-08-06T12:00:00Z,26.2168,-96.4998,4.0,5.052534018,140.7029167,6.18,'11111222,11111222,11111222' 
TABS,ioos:station:wmo:42045:1,2016-08-06T12:30:00Z,26.2168,-96.4998,4.0,5.335775483,138.7234683,6.58,'11111222,11111222,11111222' 
TABS,ioos:station:wmo:42045:1,2016-08-06T13:00:00Z,26.2168,-96.4998,4.0,4.744733923,134.7441521,5.91,'11111222,11111222,11111222' 
TABS,ioos:station:wmo:42045:1,2016-08-06T13:30:00Z,26.2168,-96.4998,4.0,3.982084881,131.3351396,4.76,'11111222,11111222,11111222' 
TABS,ioos:station:wmo:42045:1,2016-08-06T14:00:00Z,26.2168,-96.4998,4.0,4.784746597,132.4592768,6.06,'11111222,11111222,11111222' 
TABS,ioos:station:wmo:42045:1,2016-08-06T14:30:00Z,26.2168,-96.4998,4.0,4.664986602,137.6935731,5.45,'11111222,11111222,11111222' 
TABS,ioos:station:wmo:42045:1,2016-08-06T15:00:00Z,26.2168,-96.4998,4.0,4.447977068,135.6379198,5.33,'11111222,11111222,11111222' 
TABS,ioos:station:wmo:42045:1,2016-08-06T15:30:00Z,26.2168,-96.4998,4.0,5.015117147,138.3952313,6.02,'11111222,11111222,11111222' 
TABS,ioos:station:wmo:42045:1,2016-08-06T16:00:00Z,26.2168,-96.4998,4.0,4.349678149,136.2112628,5.56,'11111222,11111222,11111222' 
TABS,ioos:station:wmo:42045:1,2016-08-06T16:30:00Z,26.2168,-96.4998,4.0,4.55131849,137.5826617,5.66,'11111222,11111222,11111222' 
TABS,ioos:station:wmo:42045:1,2016-08-06T17:00:00Z,26.2168,-96.4998,4.0,4.607222591,132.6253597,6.03,'11111222,11111222,11111222' 
TABS,ioos:station:wmo:42045:1,2016-08-06T17:30:00Z,26.2168,-96.4998,4.0,4.205199163,124.6351731,5.29,'11111222,11111222,11111222' 
TABS,ioos:station:wmo:42045:1,2016-08-06T18:00:00Z,26.2168,-96.4998,4.0,4.179102775,125.5539532,4.91,'11111222,11111222,11111222' 
TABS,ioos:station:wmo:42045:1,2016-08-06T18:30:00Z,26.2168,-96.4998,4.0,4.139975845,120.964105,5.05,'11111222,11111222,11111222' 
TABS,ioos:station:wmo:42045:1,2016-08-06T19:00:00Z,26.2168,-96.4998,4.0,4.449460641,119.0424498,5.2,'11111222,11111222,11111222' 
TABS,ioos:station:wmo:42045:1,2016-08-06T19:30:00Z,26.2168,-96.4998,4.0,4.565709145,124.5605682,5.53,'11111222,11111222,11111222' 
TABS,ioos:station:wmo:42045:1,2016-08-06T20:00:00Z,26.2168,-96.4998,4.0,4.476114386,126.460619,5.32,'11111222,11111222,11111222' 
TABS,ioos:station:wmo:42045:1,2016-08-06T20:30:00Z,26.2168,-96.4998,4.0,4.79654042,126.0101455,5.56,'11111222,11111222,11111222' 
TABS,ioos:station:wmo:42045:1,2016-08-06T21:00:00Z,26.2168,-96.4998,4.0,5.150242713,126.3139814,6.22,'11111222,11111222,11111222' 
TABS,ioos:station:wmo:42045:1,2016-08-06T21:30:00Z,26.2168,-96.4998,4.0,6.2310593,133.7648463,7.49,'11111222,11111222,11111222' 
TABS,ioos:station:wmo:42045:1,2016-08-06T22:00:00Z,26.2168,-96.4998,4.0,6.404100249,144.5978203,7.41,'11111222,11111222,11111222' 
TABS,ioos:station:wmo:42045:1,2016-08-06T22:30:00Z,26.2168,-96.4998,4.0,6.012362265,142.5014302,7.03,'11111222,11111222,11111222' 
TABS,ioos:station:wmo:42045:1,2016-08-06T23:00:00Z,26.2168,-96.4998,4.0,5.900847397,142.1593794,7.18,'11111222,11111222,11111222' 
TABS,ioos:station:wmo:42045:1,2016-08-06T23:30:00Z,26.2168,-96.4998,4.0,5.660538844,140.3761702,7.42,'11111222,11111222,11111222' 
TABS,ioos:station:wmo:42045:1,2016-08-07T00:00:00Z,26.2168,-96.4998,4.0,0.0,0.0,0.0,'11111222,11111222,11111222' 
TABS,ioos:station:wmo:42045:1,2016-08-07T00:30:00Z,26.2168,-96.4998,4.0,5.277139377,141.153973,6.66,'11111222,11111222,11111222' 
TABS,ioos:station:wmo:42045:1,2016-08-07T01:00:00Z,26.2168,-96.4998,4.0,5.32505399,140.1809561,6.49,'11111222,11111222,11111222' 
TABS,ioos:station:wmo:42045:1,2016-08-07T01:30:00Z,26.2168,-96.4998,4.0,5.25214242,141.4938258,6.65,'11111222,11111222,11111222' 
TABS,ioos:station:wmo:42045:1,2016-08-07T02:00:00Z,26.2168,-96.4998,4.0,5.519755429,140.5137028,6.67,'11111222,11111222,11111222' 
TABS,ioos:station:wmo:42045:1,2016-08-07T02:30:00Z,26.2168,-96.4998,4.0,5.711829829,140.5415075,6.75,'11111222,11111222,11111222' 
TABS,ioos:station:wmo:42045:1,2016-08-07T03:00:00Z,26.2168,-96.4998,4.0,5.331603886,135.1522932,6.26,'11111222,11111222,11111222' 
TABS,ioos:station:wmo:42045:1,2016-08-07T03:30:00Z,26.2168,-96.4998,4.0,5.601473021,131.8886973,6.78,'11111222,11111222,11111222' 
TABS,ioos:station:wmo:42045:1,2016-08-07T04:00:00Z,26.2168,-96.4998,4.0,5.423817844,137.9895403,6.42,'11111222,11111222,11111222' 
TABS,ioos:station:wmo:42045:1,2016-08-07T04:30:00Z,26.2168,-96.4998,4.0,5.446292317,144.7928111,6.35,'11111222,11111222,11111222' 
TABS,ioos:station:wmo:42045:1,2016-08-07T05:00:00Z,26.2168,-96.4998,4.0,5.580143367,142.7196846,6.55,'11111222,11111222,11111222' 
TABS,ioos:station:wmo:42045:1,2016-08-07T05:30:00Z,26.2168,-96.4998,4.0,5.144871233,146.4955439,6.44,'11111222,11111222,11111222' 
TABS,ioos:station:wmo:42045:1,2016-08-07T06:00:00Z,26.2168,-96.4998,4.0,5.383651177,146.9005733,6.35,'11111222,11111222,11111222' 
TABS,ioos:station:wmo:42045:1,2016-08-07T06:30:00Z,26.2168,-96.4998,4.0,5.611434754,149.0015045,6.67,'11111222,11111222,11111222' 
TABS,ioos:station:wmo:42045:1,2016-08-07T07:00:00Z,26.2168,-96.4998,4.0,5.979983278,154.335079,6.93,'11111222,11111222,11111222' 
TABS,ioos:station:wmo:42045:1,2016-08-07T07:30:00Z,26.2168,-96.4998,4.0,5.773534446,153.3464598,6.75,'11111222,11111222,11111222' 
TABS,ioos:station:wmo:42045:1,2016-08-07T08:00:00Z,26.2168,-96.4998,4.0,5.674169543,147.9627917,7.03,'11111222,11111222,11111222' 
TABS,ioos:station:wmo:42045:1,2016-08-07T08:30:00Z,26.2168,-96.4998,4.0,5.570035907,145.3116438,6.82,'11111222,11111222,11111222' 
TABS,ioos:station:wmo:42045:1,2016-08-07T09:00:00Z,26.2168,-96.4998,4.0,5.506523404,152.1787353,6.89,'11111222,11111222,11111222' 
TABS,ioos:station:wmo:42045:1,2016-08-07T09:30:00Z,26.2168,-96.4998,4.0,7.274860823,155.1261147,8.35,'11111222,11111222,11111222' 
TABS,ioos:station:wmo:42045:1,2016-08-07T10:00:00Z,26.2168,-96.4998,4.0,5.349859811,150.800043,6.33,'11111222,11111222,11111222' 
TABS,ioos:station:wmo:42045:1,2016-08-07T10:30:00Z,26.2168,-96.4998,4.0,4.762058378,155.695718,5.84,'11111222,11111222,11111222' 
TABS,ioos:station:wmo:42045:1,2016-08-07T11:00:00Z,26.2168,-96.4998,4.0,4.689019087,158.7434278,5.46,'11111222,11111222,11111222' 
TABS,ioos:station:wmo:42045:1,2016-08-07T11:30:00Z,26.2168,-96.4998,4.0,5.000089999,160.7318405,6.06,'11111222,11111222,11111222' 